Time,TemperatureF,DewpointF,PressureIn,WindDirection,WindDirectionDegrees,WindSpeedMPH,WindSpeedGustMPH,Humidity,HourlyPrecipIn,Conditions,Clouds,dailyrainin,SoftwareType,DateUTC
2013-11-10 00:05:00,44.9,33.1,30.06,SW,229,0.0,6.0,63,0.00,,,0.00,Wunderground v.1.15,2013-11-10 05:05:00,
2013-11-10 00:10:00,44.9,32.7,30.06,SW,229,0.0,6.0,62,0.00,,,0.00,Wunderground v.1.15,2013-11-10 05:10:00,
2013-11-10 00:15:00,44.8,33.0,30.06,SW,229,0.0,6.0,63,0.00,,,0.00,Wunderground v.1.15,2013-11-10 05:15:00,
2013-11-10 00:20:00,44.6,32.8,30.06,SW,229,0.0,6.0,63,0.00,,,0.00,Wunderground v.1.15,2013-11-10 05:20:00,
2013-11-10 00:25:00,44.5,32.7,30.06,SW,229,0.0,6.0,63,0.00,,,0.00,Wunderground v.1.15,2013-11-10 05:25:00,
2013-11-10 00:30:00,44.3,32.5,30.06,SW,229,0.0,6.0,63,0.00,,,0.00,Wunderground v.1.15,2013-11-10 05:30:00,
2013-11-10 00:35:00,44.2,32.8,30.06,SW,229,0.0,6.0,64,0.00,,,0.00,Wunderground v.1.15,2013-11-10 05:35:00,
2013-11-10 00:40:00,44.1,32.7,30.05,SW,229,0.0,6.0,64,0.00,,,0.00,Wunderground v.1.15,2013-11-10 05:40:00,
2013-11-10 00:45:00,44.0,32.6,30.05,SW,229,0.0,6.0,64,0.00,,,0.00,Wunderground v.1.15,2013-11-10 05:45:00,
2013-11-10 00:50:00,44.0,32.6,30.05,SW,229,0.0,6.0,64,0.00,,,0.00,Wunderground v.1.15,2013-11-10 05:50:00,
2013-11-10 00:55:00,44.0,32.6,30.05,SW,229,0.0,6.0,64,0.00,,,0.00,Wunderground v.1.15,2013-11-10 05:55:00,
2013-11-10 01:00:00,44.0,33.0,30.05,SW,229,0.0,6.0,65,0.00,,,0.00,Wunderground v.1.15,2013-11-10 06:00:00,
2013-11-10 01:05:00,43.9,32.9,30.05,SW,229,0.0,6.0,65,0.00,,,0.00,Wunderground v.1.15,2013-11-10 06:05:00,
2013-11-10 01:10:00,43.7,32.7,30.04,SW,229,0.0,6.0,65,0.00,,,0.00,Wunderground v.1.15,2013-11-10 06:10:00,
2013-11-10 01:15:00,43.7,32.7,30.04,SW,229,0.0,6.0,65,0.00,,,0.00,Wunderground v.1.15,2013-11-10 06:15:00,
2013-11-10 01:20:00,43.8,32.8,30.04,SW,229,0.0,6.0,65,0.00,,,0.00,Wunderground v.1.15,2013-11-10 06:20:00,
2013-11-10 01:30:00,43.9,32.9,30.04,SW,229,0.0,6.0,65,0.00,,,0.00,Wunderground v.1.15,2013-11-10 06:30:00,
2013-11-10 01:35:00,43.9,32.9,30.04,SW,229,0.0,6.0,65,0.00,,,0.00,Wunderground v.1.15,2013-11-10 06:35:00,
2013-11-10 01:40:00,43.8,33.2,30.04,SW,229,0.0,6.0,66,0.00,,,0.00,Wunderground v.1.15,2013-11-10 06:40:00,
2013-11-10 01:50:00,43.4,32.8,30.04,SW,229,0.0,6.0,66,0.00,,,0.00,Wunderground v.1.15,2013-11-10 06:50:00,
2013-11-10 01:55:00,43.3,32.7,30.04,SW,229,0.0,6.0,66,0.00,,,0.00,Wunderground v.1.15,2013-11-10 06:55:00,
2013-11-10 02:00:00,43.2,32.6,30.04,SW,229,0.0,6.0,66,0.00,,,0.00,Wunderground v.1.15,2013-11-10 07:00:00,
2013-11-10 02:05:00,43.1,32.9,30.04,SW,229,0.0,6.0,67,0.00,,,0.00,Wunderground v.1.15,2013-11-10 07:05:00,
2013-11-10 02:10:00,43.1,32.5,30.03,SW,229,0.0,6.0,66,0.00,,,0.00,Wunderground v.1.15,2013-11-10 07:10:00,
2013-11-10 02:20:00,43.2,32.6,30.04,SW,229,0.0,6.0,66,0.00,,,0.00,Wunderground v.1.15,2013-11-10 07:20:00,
2013-11-10 02:25:00,43.2,32.6,30.03,SW,229,0.0,6.0,66,0.00,,,0.00,Wunderground v.1.15,2013-11-10 07:25:00,
2013-11-10 02:30:00,43.2,32.6,30.03,SW,229,0.0,6.0,66,0.00,,,0.00,Wunderground v.1.15,2013-11-10 07:30:00,
2013-11-10 02:35:00,43.2,32.6,30.03,SW,229,0.0,6.0,66,0.00,,,0.00,Wunderground v.1.15,2013-11-10 07:35:00,
2013-11-10 02:40:00,43.1,32.5,30.03,SW,229,0.0,6.0,66,0.00,,,0.00,Wunderground v.1.15,2013-11-10 07:40:00,
2013-11-10 02:50:00,43.2,32.6,30.03,SW,229,0.0,6.0,66,0.00,,,0.00,Wunderground v.1.15,2013-11-10 07:50:00,
2013-11-10 02:55:00,43.3,32.7,30.03,SW,229,0.0,6.0,66,0.00,,,0.00,Wunderground v.1.15,2013-11-10 07:55:00,
2013-11-10 03:00:00,43.3,32.7,30.03,SW,229,0.0,6.0,66,0.00,,,0.00,Wunderground v.1.15,2013-11-10 08:00:00,
2013-11-10 03:05:00,43.4,32.8,30.03,SW,229,0.0,6.0,66,0.00,,,0.00,Wunderground v.1.15,2013-11-10 08:05:00,
2013-11-10 03:10:00,43.3,32.7,30.03,SW,229,0.0,6.0,66,0.00,,,0.00,Wunderground v.1.15,2013-11-10 08:10:00,
2013-11-10 03:20:00,42.9,32.7,30.03,SW,229,0.0,6.0,67,0.00,,,0.00,Wunderground v.1.15,2013-11-10 08:20:00,
2013-11-10 03:25:00,42.8,32.6,30.03,SW,229,0.0,6.0,67,0.00,,,0.00,Wunderground v.1.15,2013-11-10 08:25:00,
2013-11-10 03:30:00,42.7,32.9,30.03,SW,229,0.0,6.0,68,0.00,,,0.00,Wunderground v.1.15,2013-11-10 08:30:00,
2013-11-10 03:35:00,42.5,32.7,30.03,SW,229,0.0,6.0,68,0.00,,,0.00,Wunderground v.1.15,2013-11-10 08:35:00,
2013-11-10 03:40:00,42.5,34.1,30.03,SW,229,0.0,6.0,72,0.00,,,0.00,Wunderground v.1.15,2013-11-10 08:40:00,
2013-11-10 03:50:00,42.2,32.8,30.03,SW,229,0.0,6.0,69,0.00,,,0.00,Wunderground v.1.15,2013-11-10 08:50:00,
2013-11-10 03:55:00,42.1,33.0,30.03,SW,229,0.0,6.0,70,0.00,,,0.00,Wunderground v.1.15,2013-11-10 08:55:00,
2013-11-10 04:00:00,41.9,32.8,30.03,SW,229,0.0,6.0,70,0.00,,,0.00,Wunderground v.1.15,2013-11-10 09:00:00,
2013-11-10 04:10:00,41.5,32.8,30.03,SW,229,0.0,6.0,71,0.00,,,0.00,Wunderground v.1.15,2013-11-10 09:10:00,
2013-11-10 04:15:00,41.4,32.7,30.03,SW,229,0.0,6.0,71,0.00,,,0.00,Wunderground v.1.15,2013-11-10 09:15:00,
2013-11-10 04:20:00,41.4,32.7,30.03,SW,229,0.0,6.0,71,0.00,,,0.00,Wunderground v.1.15,2013-11-10 09:20:00,
2013-11-10 04:25:00,41.4,32.7,30.03,SW,229,0.0,6.0,71,0.00,,,0.00,Wunderground v.1.15,2013-11-10 09:25:00,
2013-11-10 04:30:00,41.3,32.6,30.03,SW,229,0.0,6.0,71,0.00,,,0.00,Wunderground v.1.15,2013-11-10 09:30:00,
2013-11-10 04:40:00,41.0,32.3,30.02,SW,229,0.0,6.0,71,0.00,,,0.00,Wunderground v.1.15,2013-11-10 09:40:00,
2013-11-10 04:45:00,40.9,32.6,30.03,SW,229,0.0,6.0,72,0.00,,,0.00,Wunderground v.1.15,2013-11-10 09:45:00,
2013-11-10 04:50:00,40.9,32.6,30.03,SW,230,0.0,6.0,72,0.00,,,0.00,Wunderground v.1.15,2013-11-10 09:50:00,
2013-11-10 04:55:00,41.2,32.5,30.03,SW,231,1.0,6.0,71,0.00,,,0.00,Wunderground v.1.15,2013-11-10 09:55:00,
2013-11-10 05:00:00,41.3,33.0,30.02,SW,230,1.0,1.0,72,0.00,,,0.00,Wunderground v.1.15,2013-11-10 10:00:00,
2013-11-10 05:10:00,41.2,33.5,30.03,West,270,0.0,6.0,74,0.00,,,0.00,Wunderground v.1.15,2013-11-10 10:10:00,
2013-11-10 05:15:00,41.0,33.7,30.03,WSW,237,0.0,6.0,75,0.00,,,0.00,Wunderground v.1.15,2013-11-10 10:15:00,
2013-11-10 05:25:00,41.1,33.8,30.03,WSW,237,0.0,6.0,75,0.00,,,0.00,Wunderground v.1.15,2013-11-10 10:25:00,
2013-11-10 05:30:00,41.1,33.4,30.03,WSW,238,0.0,6.0,74,0.00,,,0.00,Wunderground v.1.15,2013-11-10 10:30:00,
2013-11-10 05:35:00,41.0,32.7,30.03,WSW,238,0.0,6.0,72,0.00,,,0.00,Wunderground v.1.15,2013-11-10 10:35:00,
2013-11-10 05:40:00,42.3,32.1,30.03,SW,236,1.0,6.0,67,0.00,,,0.00,Wunderground v.1.15,2013-11-10 10:40:00,
2013-11-10 05:50:00,44.1,33.1,30.03,WSW,247,2.0,6.0,65,0.00,,,0.00,Wunderground v.1.15,2013-11-10 10:50:00,
2013-11-10 05:55:00,44.3,33.3,30.03,SW,225,2.0,6.0,65,0.00,,,0.00,Wunderground v.1.15,2013-11-10 10:55:00,
2013-11-10 06:00:00,44.1,33.1,30.03,SW,225,1.0,1.0,65,0.00,,,0.00,Wunderground v.1.15,2013-11-10 11:00:00,
2013-11-10 06:05:00,44.2,32.8,30.03,SW,234,1.0,6.0,64,0.00,,,0.00,Wunderground v.1.15,2013-11-10 11:05:00,
2013-11-10 06:10:00,44.3,33.7,30.03,SW,235,1.0,1.0,66,0.00,,,0.00,Wunderground v.1.15,2013-11-10 11:10:00,
2013-11-10 06:20:00,43.1,34.0,30.03,West,281,1.0,1.0,70,0.00,,,0.00,Wunderground v.1.15,2013-11-10 11:20:00,
2013-11-10 06:25:00,42.6,33.1,30.03,West,275,1.0,6.0,69,0.00,,,0.00,Wunderground v.1.15,2013-11-10 11:25:00,
2013-11-10 06:30:00,43.6,33.0,30.03,SW,232,1.0,6.0,66,0.00,,,0.00,Wunderground v.1.15,2013-11-10 11:30:00,
2013-11-10 06:35:00,44.5,33.5,30.03,SW,224,2.0,6.0,65,0.00,,,0.00,Wunderground v.1.15,2013-11-10 11:35:00,
2013-11-10 06:40:00,45.1,32.8,30.03,WSW,257,2.0,6.0,62,0.00,,,0.00,Wunderground v.1.15,2013-11-10 11:40:00,
2013-11-10 06:50:00,46.8,33.2,30.03,SW,215,4.0,4.0,59,0.00,,,0.00,Wunderground v.1.15,2013-11-10 11:50:00,
2013-11-10 06:55:00,47.4,33.4,30.03,SW,230,4.0,9.0,58,0.00,,,0.00,Wunderground v.1.15,2013-11-10 11:55:00,
2013-11-10 07:00:00,47.7,33.2,30.03,West,273,5.0,5.0,57,0.00,,,0.00,Wunderground v.1.15,2013-11-10 12:00:00,
2013-11-10 07:05:00,47.6,33.5,30.03,SW,234,3.0,6.0,58,0.00,,,0.00,Wunderground v.1.15,2013-11-10 12:05:00,
2013-11-10 07:15:00,47.5,33.4,30.04,SW,223,3.0,3.0,58,0.00,,,0.00,Wunderground v.1.15,2013-11-10 12:15:00,
2013-11-10 07:20:00,47.7,33.6,30.04,SW,221,3.0,11.0,58,0.00,,,0.00,Wunderground v.1.15,2013-11-10 12:20:00,
2013-11-10 07:25:00,48.0,33.9,30.04,SW,229,5.0,11.0,58,0.00,,,0.00,Wunderground v.1.15,2013-11-10 12:25:00,
2013-11-10 07:30:00,48.5,33.9,30.04,SW,222,6.0,6.0,57,0.00,,,0.00,Wunderground v.1.15,2013-11-10 12:30:00,
2013-11-10 07:35:00,48.7,34.1,30.04,SW,227,5.0,6.0,57,0.00,,,0.00,Wunderground v.1.15,2013-11-10 12:35:00,
2013-11-10 07:45:00,48.8,34.7,30.04,SW,225,5.0,6.0,58,0.00,,,0.00,Wunderground v.1.15,2013-11-10 12:45:00,
2013-11-10 07:50:00,49.0,34.9,30.04,SW,236,4.0,4.0,58,0.00,,,0.00,Wunderground v.1.15,2013-11-10 12:50:00,
2013-11-10 07:55:00,49.2,35.0,30.04,South,182,5.0,5.0,58,0.00,,,0.00,Wunderground v.1.15,2013-11-10 12:55:00,
2013-11-10 08:00:00,49.5,35.3,30.04,SW,233,6.0,6.0,58,0.00,,,0.00,Wunderground v.1.15,2013-11-10 13:00:00,
2013-11-10 08:10:00,50.2,36.0,30.04,SW,232,5.0,9.0,58,0.00,,,0.00,Wunderground v.1.15,2013-11-10 13:10:00,
2013-11-10 08:15:00,50.7,36.0,30.04,SW,227,6.0,9.0,57,0.00,,,0.00,Wunderground v.1.15,2013-11-10 13:15:00,
2013-11-10 08:20:00,51.1,36.4,30.04,SW,221,6.0,11.0,57,0.00,,,0.00,Wunderground v.1.15,2013-11-10 13:20:00,
2013-11-10 08:25:00,51.6,36.4,30.04,WSW,239,6.0,11.0,56,0.00,,,0.00,Wunderground v.1.15,2013-11-10 13:25:00,
2013-11-10 08:30:00,52.0,36.8,30.04,WSW,249,7.0,12.0,56,0.00,,,0.00,Wunderground v.1.15,2013-11-10 13:30:00,
2013-11-10 08:40:00,52.6,36.9,30.03,West,259,7.0,7.0,55,0.00,,,0.00,Wunderground v.1.15,2013-11-10 13:40:00,
2013-11-10 08:45:00,52.9,37.6,30.03,WSW,240,6.0,7.0,56,0.00,,,0.00,Wunderground v.1.15,2013-11-10 13:45:00,
2013-11-10 08:50:00,53.2,37.4,30.03,SW,229,6.0,9.0,55,0.00,,,0.00,Wunderground v.1.15,2013-11-10 13:50:00,
2013-11-10 08:55:00,53.6,37.8,30.03,SSE,155,7.0,9.0,55,0.00,,,0.00,Wunderground v.1.15,2013-11-10 13:55:00,
2013-11-10 09:00:00,53.9,37.6,30.03,WSW,244,6.0,12.0,54,0.00,,,0.00,Wunderground v.1.15,2013-11-10 14:00:00,
2013-11-10 09:10:00,54.3,38.0,30.02,SSW,211,8.0,8.0,54,0.00,,,0.00,Wunderground v.1.15,2013-11-10 14:10:00,
2013-11-10 09:15:00,54.6,38.3,30.02,SW,234,6.0,8.0,54,0.00,,,0.00,Wunderground v.1.15,2013-11-10 14:15:00,
2013-11-10 09:20:00,54.9,39.0,30.02,SW,229,5.0,6.0,55,0.00,,,0.00,Wunderground v.1.15,2013-11-10 14:20:00,
2013-11-10 09:25:00,55.2,38.8,30.01,WSW,243,6.0,6.0,54,0.00,,,0.00,Wunderground v.1.15,2013-11-10 14:25:00,
2013-11-10 09:35:00,56.0,39.1,30.01,SSW,198,5.0,6.0,53,0.00,,,0.00,Wunderground v.1.15,2013-11-10 14:35:00,
2013-11-10 09:40:00,56.5,40.0,30.01,SW,215,5.0,5.0,54,0.00,,,0.00,Wunderground v.1.15,2013-11-10 14:40:00,
2013-11-10 09:45:00,57.1,39.6,30.01,SW,236,4.0,6.0,52,0.00,,,0.00,Wunderground v.1.15,2013-11-10 14:45:00,
2013-11-10 09:50:00,57.6,40.6,30.01,West,279,3.0,6.0,53,0.00,,,0.00,Wunderground v.1.15,2013-11-10 14:50:00,
2013-11-10 09:55:00,58.1,40.1,30.00,West,259,4.0,11.0,51,0.00,,,0.00,Wunderground v.1.15,2013-11-10 14:55:00,
2013-11-10 10:05:00,58.8,40.2,30.00,WSW,244,8.0,9.0,50,0.00,,,0.00,Wunderground v.1.15,2013-11-10 15:05:00,
2013-11-10 10:10:00,59.0,40.4,30.00,WSW,250,9.0,9.0,50,0.00,,,0.00,Wunderground v.1.15,2013-11-10 15:10:00,
2013-11-10 10:15:00,59.0,39.9,30.00,SW,227,9.0,11.0,49,0.00,,,0.00,Wunderground v.1.15,2013-11-10 15:15:00,
2013-11-10 10:20:00,59.1,39.9,30.00,SW,231,9.0,11.0,49,0.00,,,0.00,Wunderground v.1.15,2013-11-10 15:20:00,
2013-11-10 10:25:00,59.6,40.4,30.00,West,272,8.0,11.0,49,0.00,,,0.00,Wunderground v.1.15,2013-11-10 15:25:00,
2013-11-10 10:35:00,60.5,40.7,30.00,WSW,241,5.0,12.0,48,0.00,,,0.00,Wunderground v.1.15,2013-11-10 15:35:00,
2013-11-10 10:40:00,60.4,40.6,30.00,SW,229,8.0,8.0,48,0.00,,,0.00,Wunderground v.1.15,2013-11-10 15:40:00,
2013-11-10 10:45:00,60.2,40.4,30.00,WSW,247,9.0,9.0,48,0.00,,,0.00,Wunderground v.1.15,2013-11-10 15:45:00,
2013-11-10 10:50:00,60.2,39.9,30.00,WNW,282,9.0,9.0,47,0.00,,,0.00,Wunderground v.1.15,2013-11-10 15:50:00,
2013-11-10 11:00:00,60.7,40.3,29.99,SW,232,7.0,7.0,47,0.00,,,0.00,Wunderground v.1.15,2013-11-10 16:00:00,
2013-11-10 11:05:00,60.9,40.5,29.99,West,265,7.0,15.0,47,0.00,,,0.00,Wunderground v.1.15,2013-11-10 16:05:00,
2013-11-10 11:10:00,60.8,40.4,29.99,WSW,248,8.0,8.0,47,0.00,,,0.00,Wunderground v.1.15,2013-11-10 16:10:00,
2013-11-10 11:15:00,61.0,40.6,29.99,SSW,207,8.0,8.0,47,0.00,,,0.00,Wunderground v.1.15,2013-11-10 16:15:00,
2013-11-10 11:25:00,61.6,39.5,29.99,West,261,7.0,7.0,44,0.00,,,0.00,Wunderground v.1.15,2013-11-10 16:25:00,
2013-11-10 11:30:00,61.6,39.5,29.99,WNW,283,7.0,8.0,44,0.00,,,0.00,Wunderground v.1.15,2013-11-10 16:30:00,
2013-11-10 11:35:00,61.6,39.5,29.98,WSW,255,8.0,14.0,44,0.00,,,0.00,Wunderground v.1.15,2013-11-10 16:35:00,
2013-11-10 11:40:00,61.6,40.0,29.98,WNW,303,7.0,7.0,45,0.00,,,0.00,Wunderground v.1.15,2013-11-10 16:40:00,
2013-11-10 11:45:00,62.0,38.0,29.99,West,269,5.0,7.0,41,0.00,,,0.00,Wunderground v.1.15,2013-11-10 16:45:00,
2013-11-10 11:55:00,62.0,36.7,29.98,NW,310,6.0,7.0,39,0.00,,,0.00,Wunderground v.1.15,2013-11-10 16:55:00,
2013-11-10 12:00:00,62.0,36.7,29.98,NW,320,5.0,8.0,39,0.00,,,0.00,Wunderground v.1.15,2013-11-10 17:00:00,
2013-11-10 12:05:00,62.2,36.9,29.98,NW,323,6.0,8.0,39,0.00,,,0.00,Wunderground v.1.15,2013-11-10 17:05:00,
2013-11-10 12:10:00,62.5,37.2,29.98,NW,309,5.0,6.0,39,0.00,,,0.00,Wunderground v.1.15,2013-11-10 17:10:00,
2013-11-10 12:15:00,62.5,36.5,29.97,West,281,7.0,7.0,38,0.00,,,0.00,Wunderground v.1.15,2013-11-10 17:15:00,
2013-11-10 12:25:00,62.3,36.4,29.97,NNW,330,6.0,9.0,38,0.00,,,0.00,Wunderground v.1.15,2013-11-10 17:25:00,
2013-11-10 12:30:00,62.4,35.8,29.97,WNW,295,6.0,6.0,37,0.00,,,0.00,Wunderground v.1.15,2013-11-10 17:30:00,
2013-11-10 12:35:00,61.8,36.6,29.98,NNW,341,7.0,7.0,39,0.00,,,0.00,Wunderground v.1.15,2013-11-10 17:35:00,
2013-11-10 12:40:00,61.6,36.4,29.98,NNW,342,8.0,13.0,39,0.00,,,0.00,Wunderground v.1.15,2013-11-10 17:40:00,
2013-11-10 12:45:00,61.5,36.9,29.98,NNW,327,8.0,19.0,40,0.00,,,0.00,Wunderground v.1.15,2013-11-10 17:45:00,
2013-11-10 12:55:00,61.4,37.5,29.98,NW,307,6.0,8.0,41,0.00,,,0.00,Wunderground v.1.15,2013-11-10 17:55:00,
2013-11-10 13:00:00,61.8,37.2,29.98,West,280,5.0,14.0,40,0.00,,,0.00,Wunderground v.1.15,2013-11-10 18:00:00,
2013-11-10 13:05:00,61.5,36.9,29.98,West,279,7.0,14.0,40,0.00,,,0.00,Wunderground v.1.15,2013-11-10 18:05:00,
2013-11-10 13:10:00,61.4,37.5,29.98,NW,311,6.0,6.0,41,0.00,,,0.00,Wunderground v.1.15,2013-11-10 18:10:00,
2013-11-10 13:20:00,61.0,37.7,29.98,NW,308,7.0,7.0,42,0.00,,,0.00,Wunderground v.1.15,2013-11-10 18:20:00,
2013-11-10 13:25:00,61.3,38.0,29.98,West,273,6.0,11.0,42,0.00,,,0.00,Wunderground v.1.15,2013-11-10 18:25:00,
2013-11-10 13:30:00,61.2,37.3,29.98,North,360,7.0,7.0,41,0.00,,,0.00,Wunderground v.1.15,2013-11-10 18:30:00,
2013-11-10 13:35:00,61.2,37.3,29.98,NW,323,8.0,8.0,41,0.00,,,0.00,Wunderground v.1.15,2013-11-10 18:35:00,
2013-11-10 13:45:00,61.4,37.5,29.98,WNW,302,5.0,15.0,41,0.00,,,0.00,Wunderground v.1.15,2013-11-10 18:45:00,
2013-11-10 13:50:00,61.1,37.8,29.99,WNW,300,6.0,11.0,42,0.00,,,0.00,Wunderground v.1.15,2013-11-10 18:50:00,
2013-11-10 13:55:00,61.3,38.6,29.99,NW,313,5.0,11.0,43,0.00,,,0.00,Wunderground v.1.15,2013-11-10 18:55:00,
2013-11-10 14:00:00,60.7,37.5,30.00,North,360,7.0,7.0,42,0.00,,,0.00,Wunderground v.1.15,2013-11-10 19:00:00,
2013-11-10 14:05:00,60.4,37.8,30.00,NW,307,8.0,8.0,43,0.00,,,0.00,Wunderground v.1.15,2013-11-10 19:05:00,
2013-11-10 14:15:00,60.2,38.2,30.00,NNW,336,8.0,8.0,44,0.00,,,0.00,Wunderground v.1.15,2013-11-10 19:15:00,
2013-11-10 14:20:00,60.4,37.8,30.00,NW,311,6.0,6.0,43,0.00,,,0.00,Wunderground v.1.15,2013-11-10 19:20:00,
2013-11-10 14:25:00,60.5,37.3,30.00,NW,304,5.0,18.0,42,0.00,,,0.00,Wunderground v.1.15,2013-11-10 19:25:00,
2013-11-10 14:30:00,59.9,37.9,30.01,NNW,338,6.0,6.0,44,0.00,,,0.00,Wunderground v.1.15,2013-11-10 19:30:00,
2013-11-10 14:35:00,60.1,38.1,30.01,NW,306,6.0,6.0,44,0.00,,,0.00,Wunderground v.1.15,2013-11-10 19:35:00,
2013-11-10 14:45:00,59.3,36.8,30.02,NW,304,7.0,9.0,43,0.00,,,0.00,Wunderground v.1.15,2013-11-10 19:45:00,
2013-11-10 14:50:00,59.0,36.5,30.02,North,350,9.0,11.0,43,0.00,,,0.00,Wunderground v.1.15,2013-11-10 19:50:00,
2013-11-10 14:55:00,59.0,36.5,30.03,WNW,286,8.0,11.0,43,0.00,,,0.00,Wunderground v.1.15,2013-11-10 19:55:00,
2013-11-10 15:00:00,58.8,36.3,30.03,NW,325,8.0,16.0,43,0.00,,,0.00,Wunderground v.1.15,2013-11-10 20:00:00,
2013-11-10 15:05:00,58.7,36.2,30.03,WSW,249,9.0,16.0,43,0.00,,,0.00,Wunderground v.1.15,2013-11-10 20:05:00,
2013-11-10 15:15:00,58.4,34.8,30.04,WNW,291,9.0,9.0,41,0.00,,,0.00,Wunderground v.1.15,2013-11-10 20:15:00,
2013-11-10 15:20:00,58.5,35.5,30.04,NNW,344,7.0,14.0,42,0.00,,,0.00,Wunderground v.1.15,2013-11-10 20:20:00,
2013-11-10 15:25:00,58.3,35.3,30.05,NW,311,6.0,14.0,42,0.00,,,0.00,Wunderground v.1.15,2013-11-10 20:25:00,
2013-11-10 15:30:00,58.1,35.1,30.05,NNW,333,7.0,7.0,42,0.00,,,0.00,Wunderground v.1.15,2013-11-10 20:30:00,
2013-11-10 15:35:00,58.0,35.0,30.05,NW,319,6.0,9.0,42,0.00,,,0.00,Wunderground v.1.15,2013-11-10 20:35:00,
2013-11-10 15:45:00,57.7,35.3,30.06,NW,309,6.0,10.0,43,0.00,,,0.00,Wunderground v.1.15,2013-11-10 20:45:00,
2013-11-10 15:50:00,57.4,35.1,30.07,NNW,341,6.0,7.0,43,0.00,,,0.00,Wunderground v.1.15,2013-11-10 20:50:00,
2013-11-10 15:55:00,57.0,34.7,30.07,West,261,7.0,10.0,43,0.00,,,0.00,Wunderground v.1.15,2013-11-10 20:55:00,
2013-11-10 16:05:00,56.1,33.9,30.08,West,279,9.0,11.0,43,0.00,,,0.00,Wunderground v.1.15,2013-11-10 21:05:00,
2013-11-10 16:10:00,55.8,34.2,30.08,North,349,10.0,10.0,44,0.00,,,0.00,Wunderground v.1.15,2013-11-10 21:10:00,
2013-11-10 16:20:00,55.4,33.8,30.08,NNW,334,6.0,7.0,44,0.00,,,0.00,Wunderground v.1.15,2013-11-10 21:20:00,
2013-11-10 16:25:00,55.0,33.5,30.09,NW,313,8.0,10.0,44,0.00,,,0.00,Wunderground v.1.15,2013-11-10 21:25:00,
2013-11-10 16:30:00,54.7,33.2,30.09,NW,319,8.0,10.0,44,0.00,,,0.00,Wunderground v.1.15,2013-11-10 21:30:00,
2013-11-10 16:35:00,54.4,33.5,30.09,NNW,333,8.0,10.0,45,0.00,,,0.00,Wunderground v.1.15,2013-11-10 21:35:00,
2013-11-10 16:40:00,54.2,33.3,30.10,NW,322,7.0,14.0,45,0.00,,,0.00,Wunderground v.1.15,2013-11-10 21:40:00,
2013-11-10 16:45:00,54.0,33.1,30.10,WNW,295,6.0,14.0,45,0.00,,,0.00,Wunderground v.1.15,2013-11-10 21:45:00,
2013-11-10 16:55:00,53.6,33.3,30.11,North,355,4.0,16.0,46,0.00,,,0.00,Wunderground v.1.15,2013-11-10 21:55:00,
2013-11-10 17:00:00,53.3,33.0,30.11,West,277,7.0,7.0,46,0.00,,,0.00,Wunderground v.1.15,2013-11-10 22:00:00,
2013-11-10 17:05:00,53.1,32.8,30.12,WNW,299,6.0,7.0,46,0.00,,,0.00,Wunderground v.1.15,2013-11-10 22:05:00,
2013-11-10 17:15:00,52.6,32.9,30.13,NW,320,6.0,10.0,47,0.00,,,0.00,Wunderground v.1.15,2013-11-10 22:15:00,
2013-11-10 17:20:00,52.4,32.7,30.14,WNW,299,5.0,8.0,47,0.00,,,0.00,Wunderground v.1.15,2013-11-10 22:20:00,
2013-11-10 17:25:00,52.1,33.0,30.15,NW,322,4.0,8.0,48,0.00,,,0.00,Wunderground v.1.15,2013-11-10 22:25:00,
2013-11-10 17:30:00,51.9,32.8,30.15,WNW,295,5.0,5.0,48,0.00,,,0.00,Wunderground v.1.15,2013-11-10 22:30:00,
2013-11-10 17:35:00,51.7,32.6,30.16,WNW,298,6.0,6.0,48,0.00,,,0.00,Wunderground v.1.15,2013-11-10 22:35:00,
2013-11-10 17:45:00,51.3,32.8,30.17,WNW,298,3.0,6.0,49,0.00,,,0.00,Wunderground v.1.15,2013-11-10 22:45:00,
2013-11-10 17:50:00,51.0,32.5,30.17,WNW,291,3.0,7.0,49,0.00,,,0.00,Wunderground v.1.15,2013-11-10 22:50:00,
2013-11-10 17:55:00,50.8,32.8,30.18,SW,229,3.0,7.0,50,0.00,,,0.00,Wunderground v.1.15,2013-11-10 22:55:00,
2013-11-10 18:00:00,50.5,32.5,30.18,NW,317,2.0,6.0,50,0.00,,,0.00,Wunderground v.1.15,2013-11-10 23:00:00,
2013-11-10 18:05:00,50.2,32.3,30.18,NW,305,3.0,6.0,50,0.00,,,0.00,Wunderground v.1.15,2013-11-10 23:05:00,
2013-11-10 18:15:00,49.9,32.0,30.18,NW,304,7.0,7.0,50,0.00,,,0.00,Wunderground v.1.15,2013-11-10 23:15:00,
2013-11-10 18:20:00,49.6,32.2,30.18,NW,311,6.0,6.0,51,0.00,,,0.00,Wunderground v.1.15,2013-11-10 23:20:00,
2013-11-10 18:25:00,49.4,32.0,30.18,WNW,301,5.0,8.0,51,0.00,,,0.00,Wunderground v.1.15,2013-11-10 23:25:00,
2013-11-10 18:30:00,49.2,31.8,30.18,NW,317,5.0,5.0,51,0.00,,,0.00,Wunderground v.1.15,2013-11-10 23:30:00,
2013-11-10 18:35:00,49.1,32.2,30.19,NW,305,4.0,6.0,52,0.00,,,0.00,Wunderground v.1.15,2013-11-10 23:35:00,
2013-11-10 18:45:00,48.8,31.9,30.19,NW,320,1.0,6.0,52,0.00,,,0.00,Wunderground v.1.15,2013-11-10 23:45:00,
2013-11-10 18:50:00,48.6,31.8,30.20,NW,309,1.0,1.0,52,0.00,,,0.00,Wunderground v.1.15,2013-11-10 23:50:00,
2013-11-10 18:55:00,48.4,32.0,30.20,WSW,257,2.0,5.0,53,0.00,,,0.00,Wunderground v.1.15,2013-11-10 23:55:00,
2013-11-10 19:00:00,48.3,31.9,30.20,NW,304,2.0,2.0,53,0.00,,,0.00,Wunderground v.1.15,2013-11-11 00:00:00,
2013-11-10 19:10:00,48.2,31.9,30.21,WNW,301,2.0,6.0,53,0.00,,,0.00,Wunderground v.1.15,2013-11-11 00:10:00,
2013-11-10 19:15:00,48.1,31.8,30.21,WNW,301,2.0,6.0,53,0.00,,,0.00,Wunderground v.1.15,2013-11-11 00:15:00,
2013-11-10 19:20:00,48.0,31.7,30.21,WNW,300,1.0,1.0,53,0.00,,,0.00,Wunderground v.1.15,2013-11-11 00:20:00,
2013-11-10 19:25:00,47.8,31.9,30.22,WNW,301,0.0,6.0,54,0.00,,,0.00,Wunderground v.1.15,2013-11-11 00:25:00,
2013-11-10 19:35:00,47.5,31.7,30.22,WSW,245,1.0,6.0,54,0.00,,,0.00,Wunderground v.1.15,2013-11-11 00:35:00,
2013-11-10 19:40:00,47.4,31.6,30.22,NW,306,1.0,6.0,54,0.00,,,0.00,Wunderground v.1.15,2013-11-11 00:40:00,
2013-11-10 19:45:00,47.3,31.5,30.22,WSW,247,1.0,6.0,54,0.00,,,0.00,Wunderground v.1.15,2013-11-11 00:45:00,
2013-11-10 19:50:00,47.2,31.8,30.22,WSW,246,1.0,1.0,55,0.00,,,0.00,Wunderground v.1.15,2013-11-11 00:50:00,
2013-11-10 19:55:00,47.1,31.7,30.22,WSW,247,1.0,6.0,55,0.00,,,0.00,Wunderground v.1.15,2013-11-11 00:55:00,
2013-11-10 20:05:00,46.9,31.6,30.23,WSW,246,0.0,6.0,55,0.00,,,0.00,Wunderground v.1.15,2013-11-11 01:05:00,
2013-11-10 20:10:00,46.8,31.5,30.23,WSW,247,1.0,1.0,55,0.00,,,0.00,Wunderground v.1.15,2013-11-11 01:10:00,
2013-11-10 20:15:00,46.8,31.5,30.23,WSW,247,1.0,2.0,55,0.00,,,0.00,Wunderground v.1.15,2013-11-11 01:15:00,
2013-11-10 20:20:00,46.7,31.4,30.23,WSW,246,1.0,1.0,55,0.00,,,0.00,Wunderground v.1.15,2013-11-11 01:20:00,
2013-11-10 20:30:00,46.8,31.0,30.23,West,261,2.0,6.0,54,0.00,,,0.00,Wunderground v.1.15,2013-11-11 01:30:00,
2013-11-10 20:35:00,46.8,31.0,30.23,NW,326,3.0,6.0,54,0.00,,,0.00,Wunderground v.1.15,2013-11-11 01:35:00,
2013-11-10 20:40:00,46.8,31.0,30.23,WNW,302,3.0,3.0,54,0.00,,,0.00,Wunderground v.1.15,2013-11-11 01:40:00,
2013-11-10 20:46:00,46.8,31.0,30.23,WNW,288,3.0,6.0,54,0.00,,,0.00,Wunderground v.1.15,2013-11-11 01:46:00,
2013-11-10 20:55:00,46.6,31.3,30.24,West,281,0.0,6.0,55,0.00,,,0.00,Wunderground v.1.15,2013-11-11 01:55:00,
2013-11-10 21:00:00,46.5,31.2,30.24,WNW,282,1.0,1.0,55,0.00,,,0.00,Wunderground v.1.15,2013-11-11 02:00:00,
2013-11-10 21:05:00,46.3,31.0,30.24,West,279,0.0,6.0,55,0.00,,,0.00,Wunderground v.1.15,2013-11-11 02:05:00,
2013-11-10 21:10:00,46.2,30.9,30.24,West,263,1.0,6.0,55,0.00,,,0.00,Wunderground v.1.15,2013-11-11 02:10:00,
2013-11-10 21:20:00,46.0,30.7,30.24,WSW,256,1.0,6.0,55,0.00,,,0.00,Wunderground v.1.15,2013-11-11 02:20:00,
2013-11-10 21:25:00,46.0,30.7,30.25,WSW,257,1.0,6.0,55,0.00,,,0.00,Wunderground v.1.15,2013-11-11 02:25:00,
2013-11-10 21:30:00,45.9,30.6,30.25,WSW,250,1.0,6.0,55,0.00,,,0.00,Wunderground v.1.15,2013-11-11 02:30:00,
2013-11-10 21:35:00,45.8,31.0,30.25,WSW,251,1.0,6.0,56,0.00,,,0.00,Wunderground v.1.15,2013-11-11 02:35:00,
2013-11-10 21:40:00,45.7,30.9,30.25,WSW,251,1.0,1.0,56,0.00,,,0.00,Wunderground v.1.15,2013-11-11 02:40:00,
2013-11-10 21:50:00,45.4,31.0,30.25,West,271,1.0,1.0,57,0.00,,,0.00,Wunderground v.1.15,2013-11-11 02:50:00,
2013-11-10 21:55:00,45.4,31.0,30.24,West,281,1.0,6.0,57,0.00,,,0.00,Wunderground v.1.15,2013-11-11 02:55:00,
2013-11-10 22:00:00,45.2,30.9,30.24,West,277,1.0,1.0,57,0.00,,,0.00,Wunderground v.1.15,2013-11-11 03:00:00,
2013-11-10 22:10:00,45.1,30.8,30.24,WSW,253,2.0,2.0,57,0.00,,,0.00,Wunderground v.1.15,2013-11-11 03:10:00,
2013-11-10 22:15:00,45.1,30.8,30.24,WSW,242,2.0,6.0,57,0.00,,,0.00,Wunderground v.1.15,2013-11-11 03:15:00,
2013-11-10 22:20:00,45.1,30.8,30.25,WSW,237,1.0,6.0,57,0.00,,,0.00,Wunderground v.1.15,2013-11-11 03:20:00,
2013-11-10 22:30:00,44.7,30.8,30.25,WSW,237,0.0,6.0,58,0.00,,,0.00,Wunderground v.1.15,2013-11-11 03:30:00,
2013-11-10 22:35:00,44.6,30.7,30.25,WSW,240,1.0,6.0,58,0.00,,,0.00,Wunderground v.1.15,2013-11-11 03:35:00,
2013-11-10 22:40:00,44.7,30.8,30.25,WSW,244,3.0,3.0,58,0.00,,,0.00,Wunderground v.1.15,2013-11-11 03:40:00,
2013-11-10 22:45:00,44.7,30.8,30.25,WSW,244,3.0,6.0,58,0.00,,,0.00,Wunderground v.1.15,2013-11-11 03:45:00,
2013-11-10 22:50:00,44.6,30.7,30.25,WSW,244,2.0,6.0,58,0.00,,,0.00,Wunderground v.1.15,2013-11-11 03:50:00,
2013-11-10 23:00:00,44.3,30.9,30.25,SW,230,1.0,6.0,59,0.00,,,0.00,Wunderground v.1.15,2013-11-11 04:00:00,
2013-11-10 23:05:00,44.3,30.9,30.25,West,269,2.0,6.0,59,0.00,,,0.00,Wunderground v.1.15,2013-11-11 04:05:00,
2013-11-10 23:10:00,44.3,30.9,30.25,West,261,2.0,6.0,59,0.00,,,0.00,Wunderground v.1.15,2013-11-11 04:10:00,
2013-11-10 23:20:00,44.2,30.8,30.25,WSW,249,2.0,6.0,59,0.00,,,0.00,Wunderground v.1.15,2013-11-11 04:20:00,
2013-11-10 23:25:00,44.2,30.8,30.24,WNW,282,2.0,6.0,59,0.00,,,0.00,Wunderground v.1.15,2013-11-11 04:25:00,
2013-11-10 23:30:00,44.2,30.8,30.25,WNW,286,1.0,1.0,59,0.00,,,0.00,Wunderground v.1.15,2013-11-11 04:30:00,
2013-11-10 23:35:00,44.2,30.8,30.25,WNW,283,1.0,3.0,59,0.00,,,0.00,Wunderground v.1.15,2013-11-11 04:35:00,
2013-11-10 23:40:00,44.2,30.8,30.25,WNW,283,1.0,1.0,59,0.00,,,0.00,Wunderground v.1.15,2013-11-11 04:40:00,
2013-11-10 23:50:00,44.3,30.9,30.25,West,265,2.0,2.0,59,0.00,,,0.00,Wunderground v.1.15,2013-11-11 04:50:00,
2013-11-10 23:55:00,44.3,30.9,30.25,WNW,286,2.0,6.0,59,0.00,,,0.00,Wunderground v.1.15,2013-11-11 04:55:00,